Location: Fort Wayne
(41.1310°N, 85.1290°W)
Time: 03:02:49
(UTC-04:00)

Oscar 19 - Visible Passes

Search period start: 03 September 2014 00:00
Search period end: 13 September 2014 00:00
Orbit: 775 x 790 km, 98.5° (Epoch: 01 September)

Date Brightness Start Highest point End Pass type
(mag) Time Alt. Az. Time Alt. Az. Time Alt. Az.
03 Sep 13.4 02:09:07 10° NE 02:09:25 11° NE 02:09:25 11° NE visible
03 Sep 12.0 03:47:01 10° N 03:49:59 34° N 03:49:59 34° N visible
04 Sep 12.4 03:15:25 10° NNE 03:17:57 29° NNE 03:17:57 29° NNE visible
04 Sep 12.6 04:56:27 10° NNW 04:58:32 15° NW 04:58:32 15° NW visible
05 Sep 12.9 02:44:11 10° NNE 02:45:55 20° NE 02:45:55 20° NE visible
05 Sep 12.3 04:23:47 10° N 04:26:29 23° NW 04:26:29 23° NW visible
06 Sep 13.5 02:13:34 10° NE 02:13:53 11° NE 02:13:53 11° NE visible
06 Sep 12.2 03:51:45 10° N 03:54:27 30° N 03:54:27 30° N visible
07 Sep 12.5 03:20:06 10° NNE 03:22:25 27° NNE 03:22:25 27° NNE visible
07 Sep 12.7 05:01:26 10° NNW 05:02:59 13° NW 05:02:59 13° NW visible
08 Sep 13.0 02:48:48 10° NNE 02:50:23 19° NE 02:50:23 19° NE visible
08 Sep 12.4 04:28:36 10° NNW 04:30:57 21° NW 04:30:57 21° NW visible
09 Sep 13.5 02:18:03 10° NE 02:18:21 11° NE 02:18:21 11° NE visible
09 Sep 12.3 03:56:30 10° N 03:58:55 26° NNW 03:58:55 26° NNW visible
10 Sep 12.6 03:24:47 10° NNE 03:26:52 25° NNE 03:26:52 25° NNE visible
10 Sep 12.8 05:06:30 10° NW 05:07:26 12° NW 05:07:26 12° NW visible
11 Sep 13.1 02:53:25 10° NNE 02:54:50 18° NNE 02:54:50 18° NNE visible
11 Sep 12.6 04:33:25 10° NNW 04:35:24 18° NNW 04:35:24 18° NNW visible
12 Sep 13.5 02:22:34 10° NE 02:22:48 11° NE 02:22:48 11° NE visible
12 Sep 12.5 04:01:15 10° N 04:03:22 23° NNW 04:03:22 23° NNW visible
